Regional Weather Roundup
Issued by NWS

Home | Current Version | Previous Version | Graphics & Text | Print | Product List | Glossary On
Versions: 1 2 3 4 5 6 7 8 9 10 11 12 13 14 15 16 17 18 19 20 21 22 23 24 25 26 27 28 29 30 31 32 33 34 35 36 37 38 39 40 41 42 43 44 45 46 47 48 49 50
434
ASUS43 KLMK 090002
RWRKY
KENTUCKY REGIONAL WEATHER ROUNDUP
NATIONAL WEATHER SERVICE LOUISVILLE KY
700 PM EST THU DEC 08 2016

NOTE "FAIR" INDICATES FEW OR NO CLOUDS BELOW 12,000 FEET
WITH NO SIGNIFICANT WEATHER AND/OR OBSTRUCTIONS TO VISIBILITY.

KYZ001>023-026-027-061>063-070>075-090100-
WESTERN AND SOUTH CENTRAL KENTUCKY

CITY           SKY/WX    TMP DP  RH WIND       PRES   REMARKS
PADUCAH        CLEAR     29  13  51 N8        30.51R WCI  21
HENDERSON      PTCLDY    27  14  59 NW9       30.51R WCI  17
OWENSBORO      MOCLDY    29  18  63 NW14      30.49R WCI  18
HOPKINSVILLE   CLEAR     30  14  52 W6        30.47R WCI  24
BOWLING GREEN  CLEAR     30  15  53 NW5       30.46R WCI  25
GLASGOW        NOT AVBL
$$

KYZ024-025-028>034-038-045-046-053-090100-
NORTH CENTRAL KENTUCKY

CITY           SKY/WX    TMP DP  RH WIND       PRES   REMARKS
LOUISVILLE/SDF PTCLDY    28  13  53 NW15      30.44R WCI  16
LOUISVILLE/LOU PTCLDY    28  15  58 NW8G18    30.45R WCI  20
FORT KNOX      MOCLDY    27  15  61 NW13G21   30.41R WCI  16
$$

KYZ035>037-039>044-047>052-055>060-089>105-090100-
NORTHEAST KENTUCKY

CITY           SKY/WX    TMP DP  RH WIND       PRES   REMARKS
LEXINGTON      CLEAR     28  14  55 NW12      30.37R WCI  18
COVINGTON      FLURRIES  24  13  62 NW13      30.39R WCI  12
FRANKFORT      CLEAR     28  14  55 NW9       30.39R WCI  19
$$

KYZ054-064>069-076>088-106>120-090100-
SOUTHEAST KENTUCKY

CITY           SKY/WX    TMP DP  RH WIND       PRES   REMARKS
JACKSON        CLEAR     29  15  56 SW3       30.32R
LONDON         CLEAR     29  15  56 W7        30.36R WCI  22
SOMERSET       CLEAR     28  14  54 NW5       30.41R WCI  23
MIDDLESBORO    CLEAR     32  17  53 NW8       30.36R WCI  25
MONTICELLO     CLEAR     28  17  63 NW7       30.41R WCI  21
$$





USA.gov is the U.S. government's official web portal to all federal, state and local government web resources and services.